• In Uzbekistan
  • List of Countries
  • For 7 days
  • Water Temperature
  • Weather Map
  • Weather Widgets
  • user-avatar
    Login

    Hourly Weather Tibissa

    Today, 15 November, Friday

    Time Temperature Precipitation Wind Pressure Humidity
    00:00 +9°C° 0 mm 7 mps 678 mmHg 69%
    01:00 +9°C° 0 mm 7 mps 678 mmHg 64%
    02:00 +9°C° 0 mm 6 mps 677 mmHg 66%
    03:00 +9°C° 0 mm 5 mps 677 mmHg 67%
    04:00 +8°C° 0 mm 4 mps 677 mmHg 68%
    05:00 +8°C° 0 mm 5 mps 677 mmHg 68%
    06:00 +8°C° 0 mm 5 mps 677 mmHg 68%
    07:00 +8°C° 0 mm 6 mps 677 mmHg 67%
    08:00 +9°C° 0 mm 6 mps 677 mmHg 60%
    09:00 +11°C° 0 mm 7 mps 677 mmHg 52%
    10:00 +12°C° 0 mm 8 mps 678 mmHg 44%
    11:00 +13°C° 0 mm 9 mps 678 mmHg 41%
    12:00 +14°C° 0 mm 10 mps 678 mmHg 39%
    13:00 +16°C° 0 mm 11 mps 678 mmHg 36%
    14:00 +16°C° 0 mm 10 mps 678 mmHg 39%
    15:00 +14°C° 0 mm 10 mps 677 mmHg 41%
    16:00 +13°C° 0 mm 9 mps 677 mmHg 44%
    17:00 +12°C° 0 mm 7 mps 677 mmHg 48%
    18:00 +11°C° 0 mm 6 mps 678 mmHg 52%
    19:00 +11°C° 0 mm 4 mps 678 mmHg 57%
    20:00 +11°C° 0 mm 3 mps 678 mmHg 57%
    21:00 +10°C° 0 mm 2 mps 678 mmHg 58%
    22:00 +10°C° 0 mm 2 mps 679 mmHg 59%
    23:00 +11°C° 0 mm 1 mps 679 mmHg 58%

    Tomorrow, 16 November, Saturday

    Time Temperature Precipitation Wind Pressure Humidity
    00:00 +11°C° 0 mm 1 mps 678 mmHg 58%
    01:00 +10°C° 0 mm 0 mps 678 mmHg 58%
    02:00 +11°C° 0 mm 1 mps 678 mmHg 58%
    03:00 +10°C° 0 mm 1 mps 678 mmHg 58%
    04:00 +9°C° 0 mm 2 mps 677 mmHg 58%
    05:00 +9°C° 0 mm 2 mps 677 mmHg 60%
    06:00 +8°C° 0 mm 2 mps 677 mmHg 62%
    07:00 +8°C° 0 mm 2 mps 676 mmHg 63%
    08:00 +9°C° 0 mm 3 mps 676 mmHg 57%
    09:00 +10°C° 0 mm 5 mps 677 mmHg 51%
    10:00 +12°C° 0 mm 7 mps 677 mmHg 45%
    11:00 +13°C° 0 mm 8 mps 677 mmHg 43%
    12:00 +13°C° 0 mm 9 mps 676 mmHg 41%
    13:00 +14°C° 0 mm 10 mps 676 mmHg 39%
    14:00 +13°C° 0 mm 10 mps 675 mmHg 44%
    15:00 +12°C° 0 mm 10 mps 675 mmHg 49%
    16:00 +11°C° 0 mm 9 mps 675 mmHg 54%
    17:00 +8°C° 0 mm 9 mps 675 mmHg 60%
    18:00 +6°C° 0 mm 8 mps 675 mmHg 65%
    19:00 +5°C° 0 mm 7 mps 675 mmHg 71%
    20:00 +4°C° 0 mm 7 mps 676 mmHg 69%
    21:00 +4°C° 0 mm 6 mps 676 mmHg 67%
    22:00 +4°C° 0 mm 6 mps 676 mmHg 66%
    23:00 +3°C° 0 mm 6 mps 676 mmHg 67%

    Day after tomorrow, 17 November, Sunday

    Time Temperature Precipitation Wind Pressure Humidity
    00:00 +3°C° 0 mm 6 mps 676 mmHg 69%
    01:00 +2°C° 0 mm 6 mps 677 mmHg 70%
    02:00 +3°C° 0.1 mm 7 mps 677 mmHg 76%
    03:00 +3°C° 0.1 mm 7 mps 677 mmHg 81%
    04:00 +2°C° 0.1 mm 8 mps 678 mmHg 86%
    05:00 +2°C° 0.1 mm 8 mps 678 mmHg 85%
    06:00 +2°C° 0.1 mm 8 mps 679 mmHg 83%
    07:00 +3°C° 0.1 mm 7 mps 679 mmHg 82%
    08:00 +4°C° 0 mm 7 mps 680 mmHg 75%
    09:00 +4°C° 0 mm 7 mps 681 mmHg 68%
    10:00 +5°C° 0 mm 7 mps 682 mmHg 61%
    11:00 +6°C° 0 mm 7 mps 682 mmHg 55%
    12:00 +8°C° 0 mm 7 mps 682 mmHg 49%
    13:00 +9°C° 0 mm 6 mps 683 mmHg 42%
    14:00 +9°C° 0 mm 6 mps 683 mmHg 42%
    15:00 +9°C° 0 mm 6 mps 683 mmHg 41%
    16:00 +9°C° 0 mm 5 mps 683 mmHg 40%
    17:00 +8°C° 0 mm 4 mps 683 mmHg 46%
    18:00 +7°C° 0 mm 4 mps 683 mmHg 52%
    19:00 +7°C° 0 mm 3 mps 683 mmHg 58%
    20:00 +7°C° 0 mm 2 mps 683 mmHg 59%
    21:00 +6°C° 0 mm 2 mps 683 mmHg 61%
    22:00 +6°C° 0 mm 2 mps 683 mmHg 62%
    23:00 +6°C° 0 mm 2 mps 683 mmHg 62%

    18 November, Monday

    Time Temperature Precipitation Wind Pressure Humidity
    00:00 +4°C° 0 mm 3 mps 683 mmHg 63%
    01:00 +4°C° 0 mm 3 mps 683 mmHg 63%
    02:00 +4°C° 0 mm 3 mps 682 mmHg 65%
    03:00 +4°C° 0 mm 3 mps 682 mmHg 67%
    04:00 +3°C° 0 mm 3 mps 682 mmHg 69%
    05:00 +3°C° 0 mm 3 mps 682 mmHg 70%
    06:00 +3°C° 0 mm 4 mps 682 mmHg 70%
    07:00 +3°C° 0 mm 4 mps 682 mmHg 71%
    08:00 +5°C° 0 mm 5 mps 682 mmHg 67%
    09:00 +5°C° 0 mm 6 mps 682 mmHg 63%
    10:00 +8°C° 0 mm 7 mps 683 mmHg 59%
    11:00 +7°C° 0 mm 8 mps 683 mmHg 56%
    12:00 +8°C° 0 mm 9 mps 682 mmHg 52%
    13:00 +9°C° 0 mm 10 mps 682 mmHg 48%
    14:00 +9°C° 0 mm 10 mps 682 mmHg 45%
    15:00 +8°C° 0 mm 10 mps 681 mmHg 43%
    16:00 +8°C° 0 mm 10 mps 681 mmHg 41%
    17:00 +7°C° 0 mm 8 mps 681 mmHg 41%
    18:00 +6°C° 0 mm 7 mps 681 mmHg 41%
    19:00 +5°C° 0 mm 6 mps 681 mmHg 41%
    20:00 +5°C° 0 mm 6 mps 681 mmHg 42%
    21:00 +5°C° 0 mm 6 mps 681 mmHg 42%
    22:00 +5°C° 0 mm 6 mps 681 mmHg 42%
    23:00 +5°C° 0 mm 5 mps 681 mmHg 43%

    19 November, Tuesday

    Time Temperature Precipitation Wind Pressure Humidity
    00:00 +5°C° 0 mm 5 mps 681 mmHg 44%
    01:00 +5°C° 0 mm 4 mps 681 mmHg 45%
    02:00 +5°C° 0 mm 4 mps 681 mmHg 47%
    03:00 +4°C° 0 mm 4 mps 681 mmHg 49%
    04:00 +4°C° 0 mm 3 mps 681 mmHg 50%
    05:00 +4°C° 0 mm 3 mps 681 mmHg 59%
    06:00 +4°C° 0 mm 3 mps 682 mmHg 68%
    07:00 +3°C° 0 mm 3 mps 682 mmHg 76%
    08:00 +5°C° 0 mm 3 mps 683 mmHg 72%
    09:00 +6°C° 0 mm 4 mps 683 mmHg 68%
    10:00 +8°C° 0 mm 4 mps 684 mmHg 63%
    11:00 +8°C° 0 mm 4 mps 684 mmHg 60%
    12:00 +10°C° 0 mm 4 mps 684 mmHg 58%
    13:00 +11°C° 0 mm 4 mps 684 mmHg 55%
    14:00 +11°C° 0 mm 4 mps 684 mmHg 55%
    15:00 +11°C° 0 mm 3 mps 684 mmHg 55%
    16:00 +11°C° 0 mm 3 mps 684 mmHg 55%
    17:00 +10°C° 0 mm 2 mps 684 mmHg 60%
    18:00 +9°C° 0 mm 2 mps 684 mmHg 66%
    19:00 +9°C° 0 mm 1 mps 684 mmHg 71%
    20:00 +9°C° 0 mm 1 mps 684 mmHg 73%
    21:00 +9°C° 0 mm 1 mps 684 mmHg 75%
    22:00 +8°C° 0 mm 1 mps 685 mmHg 76%
    23:00 +7°C° 0 mm 2 mps 684 mmHg 77%

    20 November, Wednesday

    Time Temperature Precipitation Wind Pressure Humidity
    00:00 +7°C° 0 mm 2 mps 684 mmHg 78%
    01:00 +7°C° 0 mm 3 mps 684 mmHg 79%
    02:00 +5°C° 0 mm 3 mps 684 mmHg 78%
    03:00 +5°C° 0 mm 3 mps 684 mmHg 78%
    04:00 +4°C° 0 mm 3 mps 683 mmHg 78%
    05:00 +4°C° 0 mm 3 mps 683 mmHg 78%
    06:00 +4°C° 0 mm 3 mps 683 mmHg 78%
    07:00 +4°C° 0 mm 3 mps 683 mmHg 77%
    08:00 +5°C° 0 mm 4 mps 684 mmHg 69%
    09:00 +7°C° 0 mm 4 mps 684 mmHg 61%
    10:00 +8°C° 0 mm 5 mps 685 mmHg 53%
    11:00 +9°C° 0 mm 6 mps 685 mmHg 48%
    12:00 +10°C° 0 mm 6 mps 684 mmHg 43%
    13:00 +11°C° 0 mm 6 mps 684 mmHg 38%
    14:00 +11°C° 0 mm 6 mps 684 mmHg 39%
    15:00 +10°C° 0 mm 6 mps 684 mmHg 40%
    16:00 +10°C° 0 mm 6 mps 683 mmHg 41%
    17:00 +9°C° 0 mm 5 mps 683 mmHg 47%
    18:00 +8°C° 0 mm 4 mps 683 mmHg 53%
    19:00 +8°C° 0 mm 3 mps 683 mmHg 59%
    20:00 +7°C° 0 mm 3 mps 683 mmHg 61%
    21:00 +7°C° 0 mm 3 mps 683 mmHg 63%
    22:00 +7°C° 0 mm 3 mps 684 mmHg 65%
    23:00 +7°C° 0 mm 3 mps 683 mmHg 64%
    Show more